Location: Fort Myers Shores
(26.7092°N, 81.7459°W)
Time: 05:12:52
(UTC+00:00)

Daily predictions for brighter satellites

Satellite Brightness Start Highest point End
(mag) Time Altitude Azimuth Time Altitude Azimuth Time Altitude Azimuth
Aureole 3 3.0 00:02:29 10° NNE 00:05:24 37° E 00:08:09 10° SSE
ERS-2 3.6 00:04:16 10° N 00:07:38 37° WNW 00:11:00 10° SW
BREEZE-M DEB (TANK) 3.6 00:06:16 10° NNW 00:07:22 19° N 00:07:22 19° N
Cosmos 44 3.5 00:04:57 10° SSW 00:09:27 69° WNW 00:14:13 11° NNE
GOES 2 Rocket 4.3 00:04:28 10° W 00:10:50 81° N 00:16:18 24° E
Cosmos 1626 Rocket 3.8 00:10:49 10° SSW 00:15:07 69° W 00:19:29 10° N
Cosmos 1328 3.7 00:11:10 10° S 00:15:08 62° E 00:18:15 16° NNE
CZ-4 R/B 1.3 00:11:21 10° SSE 00:15:29 78° ENE 00:19:34 10° N
ARGOS 3.5 00:12:30 10° SE 00:17:27 40° ENE 00:22:25 10° N
NOSS 2-1 (E) 4.0 00:16:03 10° SW 00:19:33 44° WNW 00:21:38 19° N
Lacrosse 5 3.7 00:20:20 10° N 00:22:02 15° NNE 00:22:02 15° NNE
CSL-04 Debris 4.2 00:23:07 10° SSE 00:28:21 52° ENE 00:33:33 10° N
Hubble Space Telescope 0.8 00:25:14 10° W 00:29:21 68° N 00:30:03 55° NE
Cosmos 1758 Rocket 3.4 00:32:45 10° S 00:37:07 74° E 00:38:18 47° NNE
CZ-2C R/B 2.6 00:31:57 10° NNE 00:37:33 83° ESE 00:43:10 10° S
Okean-O 3.0 00:33:18 10° S 00:37:40 65° WSW 00:42:04 10° NNW
Cosmos 2026 Rocket 4.2 00:41:33 10° SSW 00:47:34 69° W 00:53:41 10° N
Meteor 2-19 Rocket 4.4 00:44:56 10° S 00:51:05 89° WNW 00:57:05 11° N
H-2A R/B 2.7 00:48:46 10° S 00:53:33 53° W 00:58:25 10° NNW
Sakura Rocket 4.1 00:47:37 10° SW 00:53:33 41° SSE 00:53:46 41° SSE
Meteor 1-11 4.3 00:51:14 10° SSW 00:56:58 75° W 01:00:48 22° N
YAOGAN 1 4.1 00:54:05 10° SSW 00:58:01 35° W 01:01:59 10° NNW
GPS 2-12 Rocket1 4.2 00:54:51 10° WSW 00:58:33 33° S 00:58:33 33° S
Helios 1A Rocket 4.0 00:55:21 10° S 00:59:16 43° W 01:03:12 10° NNW
Cosmos 923 Rocket 4.0 00:59:12 10° NNW 01:04:30 78° WSW 01:06:37 37° S
Cosmos 2278 Rocket 2.2 01:02:01 10° SSW 01:07:40 80° WNW 01:08:10 73° NNW
Cosmos 158 Rocket 4.4 01:02:23 10° NNW 01:07:42 65° WSW 01:13:01 10° S
Centaur AC-146 3.5 01:07:38 10° SW 01:09:50 34° S 01:09:50 34° S
USA 267 4.5 01:13:39 23° N 01:16:42 34° NW 01:22:27 10° WSW
CSL-04 Rocket 4.4 01:14:07 10° S 01:19:15 49° W 01:24:30 10° NNW
ATLAS 2A CENTAUR R/B 4.4 02:15:00 10° WSW 02:34:18 49° SW 02:34:18 49° SW
CZ-3A R/B 3.9 09:21:30 73° SW 09:22:34 77° S 09:32:44 10° ESE
ATLAS 2A CENTAUR R/B 4.1 09:31:04 33° E 09:31:04 33° E 09:36:33 10° E
USA 267 3.4 09:35:27 10° SE 09:40:55 66° SE 09:40:55 66° SE
SJ 16-02 3.1 09:54:02 28° ENE 09:54:03 28° ENE 09:57:49 10° SE
Atlas Centaur 2 2.7 09:56:30 77° WSW 09:57:10 89° SSE 10:05:41 10° ENE
ATLAS 3B CENTAUR R/B 3.7 09:56:49 48° SW 09:58:35 53° SSW 10:14:17 10° SE
Cosmos 1844 Rocket 2.8 09:59:55 67° SE 09:59:55 67° SE 10:04:47 10° SSE
NOSS 0 Rocket 4.3 09:54:20 10° S 10:00:26 61° ESE 10:06:30 10° NNE
Cosmos 2237 Rocket 3.0 10:05:01 10° S 10:10:27 51° ESE 10:15:55 10° NNE
Aurora 2 Rocket 3.4 10:14:55 46° S 10:15:22 48° SSE 10:21:20 10° E
SL-4 R/B 3.2 10:17:09 37° E 10:17:09 37° E 10:19:51 10° NE
H-2A R/B 3.2 10:13:09 10° S 10:15:42 35° S 10:15:42 35° S
Cosmos 1464 Rocket 4.3 10:13:01 10° S 10:19:03 65° E 10:25:06 10° NNE
OAO 3 Rocket 3.2 10:20:04 68° SSE 10:20:04 68° SSE 10:24:16 10° ESE
GPS 2-17 Rocket1 4.2 10:21:53 32° S 10:22:05 32° S 10:26:09 10° ESE
Cosmos 1072 Rocket 4.5 10:17:46 10° S 10:23:54 81° E 10:30:10 10° N
Cosmos 1455 Rocket 2.9 10:25:15 10° S 10:29:37 88° ESE 10:33:59 10° N
Delta 142 3.2 10:33:17 81° NW 10:33:26 84° N 10:38:04 10° E
Cosmos 44 3.8 10:34:04 45° WSW 10:34:04 45° WSW 10:38:49 10° S
IRIDIUM 104 4.2 10:28:43 10° S 10:33:53 66° W 10:39:04 10° N
ATLAS CENTAUR R/B 3.2 10:33:55 10° S 10:37:14 28° ESE 10:40:28 10° NE
ERS-2 4.1 10:34:15 10° SE 10:37:22 27° ENE 10:40:30 10° NNE
USA 276 3.9 10:37:31 25° NE 10:37:39 25° NE 10:40:20 10° E
Delta 2 Rocket 4.4 10:37:32 43° WSW 10:38:42 50° SSW 10:44:10 10° SE
Cosmos 1953 2.7 10:36:03 10° S 10:39:58 62° E 10:43:54 10° NNE
IRIDIUM 114 4.4 10:37:58 10° SSW 10:43:01 51° W 10:48:05 10° N
Cosmos 1980 3.6 10:37:39 10° SSW 10:43:16 70° WNW 10:48:55 10° NNE
Meteor PRIRODA 3.4 10:43:48 10° N 10:47:25 86° WNW 10:51:02 10° SSW
Meteor 2-5 Rocket 4.3 10:48:07 34° W 10:48:09 34° W 10:53:17 10° SSW
CZ-4B R/B 1.3 10:45:48 10° SSE 10:49:08 88° E 10:50:22 37° N
MOS 1 Rocket 4.2 10:46:11 10° SSE 10:51:14 53° ENE 10:56:00 10° N
Cosmos 540 Rocket 3.4 10:46:21 10° SSW 10:51:22 61° WNW 10:56:26 10° N
USA 307 3.0 10:49:32 12° SSW 10:53:25 76° SE 10:57:37 10° NE
deb Chang Zheng 4 3.6 10:50:28 10° N 10:54:33 49° WNW 10:58:37 10° SSW
Cosmos 2034 Rocket 4.0 10:50:09 10° S 10:56:30 85° W 11:02:54 10° N
Haruka 4.1 10:54:44 29° WNW 10:57:29 67° NNE 11:15:05 10° E
BREEZE-M DEB (TANK) 3.9 10:58:46 17° NNW 10:58:46 17° NNW 11:01:13 10° NNE
CZ-2C R/B 2.0 10:59:52 32° NW 11:00:49 37° NNW 11:04:33 10° NE
USA 308 2.8 10:57:55 10° SW 11:02:08 87° NW 11:06:21 10° NE
USA 305 2.7 10:58:44 12° SW 11:02:36 80° NW 11:06:51 10° NE
Cosmos 990 Rocket 3.9 11:00:24 10° NNW 11:05:32 82° WSW 11:10:40 10° S
OAO 2 Rocket 4.4 11:04:20 22° NW 11:06:30 30° N 11:10:51 10° ENE
SEDSat Delta rocket 4.2 11:05:24 11° WSW 11:11:54 73° SSE 11:18:29 10° ENE
NOSS 3-2 (A) 3.2 11:06:53 10° SSW 11:12:14 87° ESE 11:18:07 10° NNE
Meteor 1-16 Rocket 4.2 11:07:13 10° SSW 11:13:00 73° W 11:18:56 10° N
Nadezhda 4 Rocket 4.1 11:08:11 10° N 11:14:18 79° E 11:20:25 10° S
USA 306 2.9 11:10:16 10° SW 11:14:27 59° NW 11:18:39 10° NNE
Cosmos 1892 Rocket 4.0 11:12:42 10° NNW 11:16:43 37° W 11:20:47 10° SSW
IUS-12 SRM-1 3.4 11:16:08 13° WSW 11:18:59 47° SSE 11:22:26 10° E
SWAS 4.4 11:15:00 10° SSW 11:19:09 59° WNW 11:23:22 10° NNE
NOSS 3-2 (C) 4.0 11:16:46 10° S 11:21:57 54° ESE 11:27:35 10° NE
SAR-Lupe-4 3.5 11:18:49 10° SSE 11:22:23 86° WSW 11:25:58 10° NNW
COSMO-SKYMED 1 3.0 11:18:40 10° S 11:22:44 40° W 11:26:49 10° NNW
Cosmos 1340 4.0 11:20:26 10° N 11:24:01 42° E 11:27:34 10° SSE
CZ-3A R/B 3.9 11:14:15 15° W 11:24:25 48° SSW 11:31:32 10° SE
Cosmos 841 Rocket 4.2 11:21:13 10° SW 11:25:36 28° WNW 11:30:00 10° N
Meteor 2-13 Rocket 4.4 11:21:30 10° N 11:27:39 78° W 11:33:45 10° S
Cosmos 1703 3.7 11:25:21 10° N 11:29:13 63° E 11:33:04 10° SSE
CZ-4B R/B 4.1 11:28:53 10° NNW 11:31:19 17° WNW 11:33:49 10° WSW
SJ 16-02 3.0 11:31:06 14° WNW 11:32:18 15° W 11:34:47 10° SW
SAR-Lupe-1 4.1 11:29:37 10° S 11:33:08 59° W 11:36:40 10° NNW
Lacrosse 4 Rocket 1.7 11:32:08 10° SW 11:36:03 42° WNW 11:40:06 10° N
Cosmos 1898 Rocket 3.8 11:31:27 10° NNW 11:36:21 45° WSW 11:41:15 10° S
Chandra Rocket (1) 1.4 11:35:58 11° W 11:39:46 64° N 11:42:13 10° E
Lacrosse 5 rocket 3.9 11:39:11 10° NNE 11:40:02 11° NE 11:40:51 10° NE
H-2A R/B 4.0 11:38:03 10° NNW 11:40:42 19° WNW 11:43:21 10° WSW
SL-16 R/B 2.2 11:36:19 10° SSW 11:41:56 71° WNW 11:47:35 10° NNE
Atlas Centaur 2 3.2 11:39:21 10° W 11:47:26 69° N 11:55:59 10° E
Cosmos 1400 Rocket 3.7 11:44:29 10° SW 11:47:59 28° W 11:51:33 10° NNW
CENTAUR R/B 2.2 11:44:30 10° SSW 11:49:54 78° WNW 11:56:12 10° NNE
GPS 2-04 Rocket1 2.8 11:45:57 10° WNW 11:50:06 84° SSW 11:54:16 10° ESE
Cosmos 2026 Rocket 4.4 11:45:03 10° N 11:51:24 72° E 11:57:45 10° SSE
CZ-2C R/B 3.2 11:47:39 10° SSE 11:52:44 62° ENE 11:57:54 10° N
Cosmos 2278 Rocket 2.3 11:48:06 10° NNW 11:53:42 62° WSW 11:59:15 10° S
Cosmos 1606 Rocket 3.7 11:49:31 10° S 11:53:48 77° E 11:58:06 10° N
CZ-4B R/B 3.3 11:48:43 10° NNE 11:54:22 89° ESE 11:59:55 10° SSW
Cosmos 2237 Rocket 3.6 11:51:23 10° W 11:54:43 16° WNW 11:58:05 10° NNW
